TimeCDT,TemperatureF,Dew PointF,Humidity,Sea Level PressureIn,VisibilityMPH,Wind Direction,Wind SpeedMPH,Gust SpeedMPH,PrecipitationIn,Events,Conditions,WindDirDegrees,DateUTC
12:53 AM,55.0,30.0,38,29.86,10.0,SSE,12.7,-,N/A,,Clear,160,2014-03-21 05:53:00
1:53 AM,55.0,30.0,38,29.84,10.0,SSE,13.8,-,N/A,,Clear,160,2014-03-21 06:53:00
2:53 AM,54.0,30.0,40,29.83,10.0,SSE,13.8,-,N/A,,Clear,160,2014-03-21 07:53:00
3:53 AM,53.1,30.9,43,29.79,10.0,South,13.8,-,N/A,,Clear,170,2014-03-21 08:53:00
4:53 AM,53.1,30.9,43,29.76,10.0,South,12.7,-,N/A,,Clear,170,2014-03-21 09:53:00
5:53 AM,55.9,33.1,42,29.76,10.0,South,11.5,-,N/A,,Clear,180,2014-03-21 10:53:00
6:53 AM,55.9,34.0,44,29.74,10.0,South,10.4,-,N/A,,Clear,170,2014-03-21 11:53:00
7:53 AM,57.0,35.1,44,29.74,10.0,South,11.5,-,N/A,,Clear,180,2014-03-21 12:53:00
8:53 AM,60.1,37.0,42,29.75,10.0,South,12.7,-,N/A,,Clear,190,2014-03-21 13:53:00
9:53 AM,64.0,39.9,41,29.75,10.0,SSW,18.4,28.8,N/A,,Clear,200,2014-03-21 14:53:00
10:53 AM,66.9,42.1,40,29.78,10.0,SW,10.4,-,N/A,,Clear,230,2014-03-21 15:53:00
11:53 AM,71.1,39.0,31,29.77,10.0,WSW,17.3,24.2,N/A,,Clear,250,2014-03-21 16:53:00
12:53 PM,71.1,35.1,27,29.79,10.0,WNW,10.4,17.3,N/A,,Clear,290,2014-03-21 17:53:00
1:53 PM,72.0,34.0,25,29.80,10.0,NW,10.4,-,N/A,,Clear,310,2014-03-21 18:53:00
2:53 PM,71.1,30.0,22,29.80,10.0,NNW,9.2,-,N/A,,Clear,330,2014-03-21 19:53:00
3:53 PM,73.9,30.9,21,29.81,10.0,North,16.1,23.0,N/A,,Clear,350,2014-03-21 20:53:00
4:53 PM,73.0,34.0,24,29.83,10.0,North,15.0,23.0,N/A,,Clear,10,2014-03-21 21:53:00
5:53 PM,70.0,34.0,27,29.85,10.0,North,21.9,29.9,N/A,,Clear,10,2014-03-21 22:53:00
6:53 PM,66.9,26.1,21,29.88,10.0,NNE,12.7,31.1,N/A,,Clear,20,2014-03-21 23:53:00
7:53 PM,62.1,28.0,28,29.93,10.0,North,12.7,-,N/A,,Clear,10,2014-03-22 00:53:00
8:53 PM,57.9,28.0,32,29.94,10.0,NNE,12.7,-,N/A,,Clear,20,2014-03-22 01:53:00
9:53 PM,54.0,32.0,43,29.98,10.0,North,10.4,-,N/A,,Clear,10,2014-03-22 02:53:00
10:53 PM,53.1,30.9,43,30.00,10.0,North,12.7,-,N/A,,Clear,10,2014-03-22 03:53:00
11:53 PM,53.1,27.0,37,30.02,10.0,North,13.8,-,N/A,,Clear,10,2014-03-22 04:53:00